RH
18 16 17 18 19 22 24 25 26 29 31 32 33 33 33 33 33 32 32 30 29 27 26 26 26 28 30 31 33 32 28 24 24 24 24 24 22 22 21 20 17 14 11 9 9 9 9 9 8 8 8 9 10 10 9 9 8 8 8 8 8 8 9 8 9 9 10 10 11 12 14 16 17 18 18 19 19 20 20 20 20 20 20 19 18
19 17 17 18 18 20 22 23 24 28 31 31 32 33 33 33 34 33 32 32 30 29 27 26 25 26 28 29 31 32 31 27 25 25 25 26 25 24 23 22 20 18 14 11 10 10 11 11 11 10 9 8 8 8 8 8 8 9 8 8 8 8 8 9 10 10 10 11 12 13 16 18 18 19 19 19 19 19 19 19 19 19 20 19 19
19 17 17 18 18 19 21 22 23 26 29 30 31 32 32 33 33 33 33 32 31 30 28 26 25 24 25 27 29 31 32 30 27 26 26 27 26 26 25 24 22 20 17 13 10 8 9 10 12 12 11 10 9 9 9 9 9 9 8 8 9 9 9 9 10 10 11 12 13 14 16 17 17 18 18 18 18 18 19 19 20 21 21 22 23
21 18 16 17 18 19 20 21 22 24 27 29 30 30 31 31 32 33 32 32 31 30 29 27 26 24 24 25 27 29 31 32 30 27 26 27 27 27 27 25 24 22 19 15 11 8 6 6 7 8 9 10 10 9 9 9 9 9 9 9 9 9 9 10 10 11 12 13 14 15 16 16 17 18 18 19 20 21 22 23 23 24 24 25 25
21 19 17 17 18 19 20 21 22 23 25 27 28 29 29 29 30 31 32 32 31 30 29 28 26 25 23 23 25 27 29 31 31 29 27 27 27 28 28 27 26 24 21 17 13 9 7 6 5 6 7 7 8 8 8 8 9 9 9 10 10 10 10 10 11 12 13 14 15 15 16 17 19 20 22 23 24 24 25 25 25 26 26 26 26
19 20 18 17 18 18 20 20 21 22 24 25 26 28 28 27 27 29 31 30 30 29 29 28 27 25 24 23 23 25 27 29 31 31 29 27 27 27 28 28 28 26 24 21 17 13 10 8 7 6 6 6 6 7 8 8 9 10 11 14 16 15 13 13 13 14 15 15 16 17 18 20 22 23 24 25 25 25 25 25 26 26 27 27 27
18 20 20 18 18 18 19 20 21 22 23 24 25 26 26 27 26 27 28 28 28 27 27 27 26 25 24 23 22 23 25 27 29 31 30 28 27 26 27 28 28 27 25 24 21 18 16 13 10 9 8 7 7 8 8 9 10 11 14 19 21 18 16 15 14 15 16 17 18 20 21 23 24 25 25 26 26 26 26 26 27 27 27 27 27
17 19 21 20 19 17 18 20 21 22 22 24 24 25 26 26 26 26 27 27 26 26 26 26 26 24 24 22 21 22 23 25 27 30 31 29 27 26 26 27 28 28 27 25 23 21 20 18 16 14 12 11 10 10 10 11 12 14 19 23 24 21 19 17 15 16 18 19 21 23 24 25 25 25 26 26 26 27 27 27 27 27 27 26 26
15 17 20 21 20 18 18 19 20 22 22 23 24 25 25 25 26 26 26 26 26 25 25 24 24 24 23 22 21 21 22 23 25 28 30 30 28 26 26 26 27 28 27 26 24 24 22 22 21 19 18 17 17 16 16 16 16 18 21 25 25 22 19 17 18 20 21 23 24 25 25 26 26 26 26 27 27 27 27 26 26 26 26 26 26
14 15 18 20 21 20 18 18 20 21 22 23 24 24 25 25 26 26 26 25 25 25 24 23 23 23 22 22 21 21 21 22 24 26 28 30 29 27 26 26 27 28 27 26 25 25 24 24 23 23 22 22 22 23 23 22 22 23 25 27 28 28 27 25 23 24 25 25 25 26 26 26 26 27 27 27 27 26 26 26 26 26 26 26 26
14 14 16 18 21 21 20 19 19 20 21 23 23 24 24 25 25 25 25 25 25 24 23 23 22 22 21 21 20 20 20 21 23 24 26 29 29 28 26 25 26 27 27 26 26 25 24 25 25 24 24 24 25 25 25 25 26 26 27 30 33 35 36 34 29 27 26 26 26 26 26 26 26 26 25 26 27 27 27 27 28 28 28 29 29
15 14 14 16 18 21 22 20 19 19 20 22 22 23 23 24 24 24 24 24 24 23 22 22 22 21 21 20 20 20 20 20 22 23 24 26 29 28 27 25 25 26 28 27 26 26 25 25 25 25 25 25 25 25 25 25 26 26 26 27 29 30 32 34 34 33 32 29 27 26 26 25 25 25 25 26 27 27 28 29 30 31 32 33 34
18 16 14 14 16 18 22 22 20 18 19 20 21 21 22 23 23 23 23 23 22 22 21 21 21 20 20 20 19 19 19 20 21 22 23 25 27 28 27 25 25 25 27 27 27 26 25 25 24 25 25 25 25 25 25 26 26 25 26 26 27 28 28 31 32 34 36 34 31 30 27 25 25 25 26 26 27 28 30 32 33 34 33 32 32
15 16 15 15 15 16 19 23 22 19 18 19 20 20 21 21 21 22 21 21 21 20 20 20 20 20 19 19 19 19 19 19 20 22 23 24 25 26 26 25 24 25 25 26 27 27 26 25 25 24 25 25 25 25 25 26 26 26 26 26 26 27 27 28 28 29 30 32 33 34 31 28 27 26 26 27 28 29 31 33 35 34 31 29 28
11 14 16 15 15 16 17 21 25 21 18 17 18 19 19 20 19 20 19 19 19 19 19 19 19 19 19 19 19 19 19 19 20 21 22 23 24 24 25 25 25 24 25 25 25 26 26 25 25 25 25 25 25 25 25 25 26 26 25 26 26 26 26 27 26 26 27 28 29 33 37 35 31 28 27 28 29 29 29 31 32 32 31 29 27
11 14 14 14 16 16 16 19 25 24 20 17 16 18 18 19 18 18 18 18 18 18 18 18 19 19 19 19 19 19 19 19 19 21 22 23 23 23 24 25 25 24 24 25 25 24 25 25 24 25 25 25 25 25 25 26 26 26 26 27 27 27 26 26 26 26 26 26 26 29 35 37 36 34 32 31 32 31 30 29 29 29 28 27 26
14 15 14 15 17 18 17 18 25 28 23 17 15 16 17 18 17 17 17 17 17 17 17 18 18 19 19 19 19 19 19 19 19 20 21 22 22 22 24 25 24 24 24 24 24 24 24 24 24 24 24 25 25 25 25 25 26 26 27 28 29 29 27 26 26 26 26 27 27 27 29 30 33 38 39 38 39 38 38 36 32 31 29 28 26
13 14 16 18 20 21 21 20 24 30 27 20 16 15 16 17 17 17 16 16 16 17 17 17 18 19 19 19 19 18 18 19 19 20 21 21 22 22 23 24 24 24 25 24 24 24 24 24 24 24 24 24 25 25 25 25 26 26 26 27 28 28 28 27 27 28 28 28 28 27 27 27 29 34 37 39 41 45 47 45 42 40 38 35 32
12 14 18 21 23 24 25 23 25 32 30 23 18 15 15 16 16 16 16 16 16 16 16 17 18 19 19 19 19 18 18 19 19 20 21 21 22 23 23 24 25 25 25 25 25 25 25 25 25 24 24 24 24 25 25 25 25 25 25 26 28 28 28 29 30 32 35 36 35 33 34 36 37 36 37 39 43 48 49 48 47 46 44 42 41
13 14 17 22 26 26 28 28 28 34 32 24 20 16 15 15 16 16 15 16 15 16 16 18 18 19 19 19 18 18 18 19 19 20 20 22 22 23 23 25 26 26 27 27 27 27 27 27 27 26 26 25 25 25 25 26 25 25 26 26 28 29 30 32 33 36 41 45 45 44 45 46 46 45 44 44 46 49 49 48 48 50 51 50 49
17 17 19 23 27 28 31 31 31 35 35 27 21 17 15 14 15 15 15 15 15 16 17 17 19 19 19 19 18 18 18 19 19 20 21 22 23 23 23 25 26 28 29 30 30 29 29 28 28 29 29 29 28 28 27 28 27 27 28 29 30 31 33 35 35 38 42 47 49 49 50 52 54 54 54 53 53 53 53 52 52 55 58 58 57
20 21 24 28 31 33 34 34 34 36 37 31 23 18 15 14 15 15 15 16 16 16 17 18 19 20 20 20 19 18 18 19 19 20 21 22 22 23 23 24 27 30 32 33 33 33 32 32 33 33 33 34 33 33 33 33 33 34 35 36 37 38 38 39 39 40 41 44 45 47 50 56 61 64 67 68 67 66 64 61 59 59 60 60 60
22 25 31 34 35 36 37 38 38 38 38 34 25 18 15 14 15 15 15 15 16 16 17 18 20 20 21 20 19 18 18 19 20 21 22 22 22 23 23 24 28 32 35 37 37 37 37 38 39 39 38 39 39 40 42 42 42 43 44 45 45 45 45 45 44 43 43 43 43 45 50 57 63 69 74 77 77 77 75 72 69 66 65 63 63
25 28 31 34 36 37 37 39 41 39 39 36 27 19 15 14 14 15 15 15 15 16 18 19 21 21 21 21 19 18 19 19 20 22 22 23 23 24 24 25 29 35 38 40 42 43 43 44 45 44 43 43 45 47 48 48 49 49 50 51 51 51 51 50 49 49 48 48 50 51 53 59 66 72 76 81 82 82 80 77 75 74 74 73 72
25 26 27 31 34 36 36 40 42 39 39 37 26 17 14 14 15 15 15 15 16 16 18 20 21 22 22 21 19 18 19 20 21 22 23 24 25 26 27 29 33 38 41 45 48 50 49 48 47 47 45 45 47 49 49 50 51 51 51 53 54 56 56 54 55 56 57 57 60 62 63 68 75 79 82 85 88 87 82 76 74 76 78 81 80
25 27 30 32 34 36 38 41 43 39 39 35 22 16 14 15 15 16 16 16 16 18 20 21 22 22 22 21 20 19 19 20 22 22 23 25 27 29 32 36 41 45 48 51 54 54 52 48 45 44 44 43 45 47 49 49 49 49 50 52 54 55 54 55 58 59 62 63 65 69 74 79 83 85 87 88 88 87 82 74 73 75 78 82 85
29 31 35 36 35 40 44 44 42 40 37 29 19 16 15 15 16 17 17 17 18 19 21 22 23 22 22 22 20 19 20 21 22 23 24 27 31 35 41 46 50 54 55 57 58 57 52 47 44 43 43 42 43 45 48 47 47 46 48 50 53 53 51 55 59 58 59 61 64 70 76 79 78 79 82 83 82 82 78 72 71 74 79 83 86
34 36 41 42 42 48 51 47 43 39 33 24 18 16 16 17 19 19 18 19 20 20 21 23 23 23 23 23 21 20 21 21 22 24 25 29 35 42 49 53 56 58 57 57 59 58 53 47 44 44 43 41 39 41 44 44 44 45 48 51 52 52 51 54 55 53 52 55 60 67 72 73 69 69 71 73 72 73 72 70 70 73 78 81 84
39 44 48 46 48 54 53 47 43 37 28 21 18 17 18 20 22 23 23 23 22 21 22 24 24 24 24 22 20 20 21 22 23 24 27 33 43 50 54 55 56 57 56 55 56 55 50 45 44 44 43 40 37 37 40 40 41 43 46 48 47 46 46 47 48 48 48 47 50 54 58 60 59 60 61 64 64 66 69 72 72 68 69 73 77
46 50 49 45 49 55 52 48 42 32 24 21 19 20 21 25 29 31 30 27 25 24 25 26 25 24 24 23 20 21 21 22 23 26 31 42 51 55 54 53 53 55 54 51 51 50 48 46 45 43 42 41 37 36 38 39 39 40 41 42 41 41 40 40 40 41 43 43 42 41 43 45 50 53 54 56 57 59 65 71 74 70 66 67 72
53 51 47 47 52 53 48 42 35 26 24 23 22 25 30 36 41 41 38 33 30 28 27 28 26 25 25 23 21 21 21 22 25 30 41 52 57 56 54 53 54 54 49 46 47 47 47 45 41 36 34 32 30 31 34 35 35 34 36 37 37 38 38 36 34 33 35 37 39 38 39 42 46 48 48 49 49 51 58 65 71 71 68 67 70
56 50 49 54 56 48 38 34 30 28 30 32 34 40 46 52 55 54 49 44 38 32 31 30 27 26 25 23 21 21 22 23 27 38 52 59 58 57 54 54 57 54 48 46 46 42 38 33 28 24 23 24 24 25 26 26 26 28 30 31 33 35 34 32 31 30 30 34 38 40 42 44 45 45 45 45 45 48 55 64 67 65 70 71 68
53 48 49 57 57 44 34 31 29 30 36 40 44 51 59 64 65 64 60 53 45 37 33 33 29 27 27 24 21 21 22 24 34 50 58 58 57 55 52 51 51 50 49 48 43 36 29 23 20 18 20 23 23 21 21 21 23 25 27 29 32 33 32 31 29 30 33 36 40 43 45 46 47 46 45 45 47 51 54 59 58 54 65 70 63
46 44 44 48 53 45 34 32 33 36 40 39 43 54 64 68 68 68 66 58 51 43 38 36 32 30 29 24 21 22 23 30 46 56 57 55 53 51 49 47 46 46 49 48 42 34 26 21 20 20 22 23 22 21 21 21 22 23 24 27 29 30 29 28 28 31 35 39 42 47 49 50 52 51 50 50 51 53 50 49 48 46 53 56 52
42 43 43 45 52 49 37 36 44 49 46 42 49 62 68 69 72 72 68 64 60 54 47 40 35 34 31 24 21 21 26 40 55 57 56 57 53 48 48 50 49 50 51 50 45 35 24 20 21 20 21 20 19 19 20 19 19 20 22 25 26 26 25 26 29 32 35 37 42 49 53 55 58 57 54 54 55 54 52 49 48 47 51 50 45
46 44 45 51 55 54 47 44 51 52 47 50 60 67 70 71 75 75 71 70 68 61 52 44 40 38 31 23 22 24 34 51 58 58 60 61 56 48 49 54 55 53 52 51 44 32 21 19 20 19 18 18 17 16 15 15 17 18 21 24 25 24 24 28 31 30 31 34 39 46 52 56 59 57 53 53 55 55 53 52 52 51 52 51 47
52 47 45 52 58 59 56 51 54 53 49 59 67 67 70 74 74 74 72 72 69 61 53 48 44 38 30 24 23 31 46 58 59 59 60 60 56 48 50 56 53 49 48 44 36 26 20 19 19 19 18 18 17 15 13 14 16 19 23 25 26 26 27 30 28 25 27 30 32 35 43 52 58 57 50 48 51 51 49 48 50 51 51 51 51
55 53 48 55 63 62 59 56 57 53 50 61 69 69 73 73 74 75 74 72 67 60 54 50 44 35 29 24 28 44 58 60 59 59 58 59 56 48 51 56 54 50 43 33 28 25 23 21 20 20 20 20 19 16 15 16 16 20 25 25 24 24 25 25 23 20 22 23 22 25 33 42 47 45 38 37 41 43 43 44 46 48 50 50 51
57 57 55 60 66 64 60 58 60 55 50 59 66 68 71 72 77 78 74 70 65 59 54 48 40 34 28 27 40 56 61 59 58 59 58 58 55 49 51 54 54 51 40 30 28 26 23 21 19 19 19 20 21 20 18 17 16 18 21 20 17 17 19 21 21 20 20 19 18 20 24 27 29 28 27 28 31 33 33 36 40 43 46 47 49
57 59 61 63 64 64 63 59 62 59 54 57 57 57 65 72 77 77 71 67 62 57 52 45 37 32 28 36 53 62 59 59 58 57 57 56 53 50 51 50 49 49 43 37 36 32 24 19 17 17 16 18 21 21 18 15 13 13 15 14 12 14 18 19 19 19 19 17 16 17 18 20 21 22 24 27 29 31 31 32 35 37 40 41 45
56 58 64 64 61 62 64 62 64 61 57 58 53 50 62 73 73 71 67 62 57 53 47 41 38 37 41 52 61 61 59 59 57 56 56 54 53 53 51 51 51 53 51 47 46 41 28 18 17 17 15 15 15 15 13 12 12 12 13 12 12 13 16 17 17 18 18 17 17 17 17 17 18 18 19 21 24 27 28 30 32 33 34 34 37
57 59 62 62 64 66 67 67 66 62 59 59 55 49 55 69 70 66 63 58 53 50 44 42 46 53 60 65 65 61 60 59 57 57 56 54 56 57 55 54 55 57 59 55 46 36 24 19 19 17 15 14 13 12 12 12 13 14 14 14 15 15 16 18 19 19 19 20 19 18 18 17 17 17 17 17 18 19 20 21 23 24 24 24 27
65 69 70 68 72 75 71 69 65 63 61 60 59 48 44 60 67 61 58 56 53 48 44 48 57 64 66 68 66 62 59 59 59 58 58 57 57 58 58 56 57 57 56 48 32 21 19 20 19 17 16 14 13 13 13 14 14 14 15 16 17 17 18 19 21 20 19 19 19 18 19 17 17 17 17 17 17 17 17 17 17 17 18 19 21
67 73 76 74 79 83 78 72 66 64 63 61 59 47 41 56 64 57 55 56 54 50 51 58 63 64 64 67 65 60 59 59 59 60 59 56 54 57 57 54 54 48 37 28 20 18 20 20 19 18 17 15 14 14 13 14 14 14 14 15 16 16 17 18 19 21 20 19 20 20 19 18 17 18 18 18 18 17 17 17 18 18 18 19 18
60 63 68 69 74 81 82 79 72 66 63 63 59 47 45 60 64 55 55 57 58 59 61 64 66 65 65 66 63 60 61 59 59 60 57 55 54 54 51 45 40 32 23 21 20 20 20 19 20 19 17 16 15 14 14 14 14 14 14 14 14 14 15 16 16 18 20 21 21 21 20 19 19 19 19 19 19 18 18 19 19 20 20 20 18
56 60 62 63 66 69 73 78 74 67 65 63 57 46 49 67 66 55 57 62 66 69 69 69 69 69 68 65 63 63 62 59 58 57 55 55 52 49 48 41 31 25 23 22 21 19 19 18 19 18 17 17 15 15 15 15 14 14 14 14 15 16 16 17 16 17 19 21 21 21 21 20 20 20 20 19 19 18 18 19 19 20 21 20 19
55 58 60 64 65 63 67 73 70 66 66 62 55 45 50 69 69 59 63 70 76 79 76 74 71 69 67 65 65 64 62 59 58 57 54 53 50 50 49 39 30 27 25 23 21 19 18 17 17 18 18 17 16 16 16 16 16 16 17 17 18 19 19 19 19 19 20 20 22 22 22 22 21 21 21 20 19 18 18 18 18 18 19 19 19
55 54 58 66 67 64 68 71 68 68 68 62 57 47 47 67 74 67 70 77 84 86 81 78 73 68 67 65 65 63 60 60 60 57 55 55 55 51 44 35 31 30 26 23 21 18 16 16 17 18 18 17 17 16 16 17 17 18 19 19 20 21 21 21 22 22 21 20 21 22 23 23 23 22 22 21 20 18 18 18 18 18 17 18 19
56 55 61 69 69 67 69 70 68 68 68 64 60 48 48 69 79 75 76 82 88 89 85 79 72 69 68 66 63 60 59 60 58 56 60 62 55 43 35 32 30 27 23 21 20 18 16 15 17 18 18 18 17 16 17 17 18 19 19 20 21 22 22 23 23 23 23 22 21 21 22 22 23 23 23 22 21 19 18 18 18 18 17 17 17
57 58 62 68 68 66 68 68 67 68 67 63 56 47 54 73 82 79 79 82 85 87 85 80 72 69 68 67 64 60 60 60 58 59 60 54 42 33 31 29 26 23 21 20 18 17 16 16 18 19 19 19 18 17 18 18 19 19 20 21 22 22 23 23 23 23 23 23 23 22 22 21 20 20 21 21 20 18 16 16 17 17 18 18 18
57 55 58 64 65 63 64 66 66 67 66 59 51 53 67 78 82 81 78 78 81 83 86 83 73 68 66 66 65 63 61 61 62 61 51 39 33 32 31 27 24 22 20 18 18 17 16 18 19 20 20 19 18 18 18 19 19 20 21 21 22 22 22 22 23 23 24 25 24 23 22 21 20 18 18 17 16 15 14 13 14 16 17 18 19
Wind_Speed
9 14 12 10 10 12 11 10 9 8 7 6 5 4 4 4 4 5 6 7 8 9 10 11 12 12 12 13 13 13 13 12 13 13 13 13 13 13 13 13 12 12 12 11 9 7 6 6 6 6 6 5 5 5 5 5 6 6 7 7 7 8 8 9 9 10 10 11 12 13 14 14 14 14 14 13 13 13 13 13 13 13 12 12 13
5 11 12 11 9 12 12 11 9 9 8 7 5 4 3 3 3 3 4 5 7 8 9 10 10 10 11 11 12 12 12 12 12 12 12 12 12 12 12 12 12 12 12 12 10 9 7 7 7 7 6 6 6 6 6 7 7 7 7 7 7 8 9 9 9 9 10 11 12 13 14 14 13 13 13 12 12 12 12 12 12 12 12 12 12
4 9 12 11 10 11 12 11 10 9 9 8 6 5 4 3 3 1 2 3 5 6 8 8 9 9 9 10 10 11 11 11 11 11 11 11 12 12 12 12 12 12 12 12 11 10 9 8 7 7 7 7 7 7 8 8 8 8 8 8 8 8 9 9 9 9 10 11 11 12 13 13 13 12 12 12 12 12 12 12 12 12 12 12 12
5 9 12 12 11 11 13 12 11 10 9 9 8 6 5 4 3 2 0 2 3 5 6 7 7 8 8 8 9 9 9 10 10 10 10 10 11 11 11 12 12 13 13 12 12 11 10 9 9 9 9 8 8 9 9 10 10 10 10 10 10 10 9 9 9 9 10 10 11 11 12 12 12 12 12 12 12 12 12 12 12 12 12 12 12
4 9 12 12 12 12 13 12 11 11 10 10 9 8 6 5 4 3 2 1 2 3 5 6 7 7 7 7 7 7 8 8 9 9 9 9 10 11 11 12 12 13 13 13 12 12 11 11 11 11 11 11 11 11 12 12 12 12 12 11 11 11 10 9 9 9 10 10 10 11 11 12 12 12 11 11 11 11 10 10 10 10 10 10 11
3 7 11 13 14 13 13 13 12 12 12 11 10 9 7 6 5 4 4 2 2 3 3 5 6 6 6 6 6 6 6 7 8 8 8 8 9 10 11 11 12 12 12 13 13 12 12 12 12 11 11 12 12 13 13 13 12 12 12 12 12 11 10 9 9 9 10 10 10 10 11 11 11 10 10 9 9 9 9 9 9 9 10 10 10
4 6 10 12 14 15 14 14 13 13 12 12 11 10 9 7 6 5 5 4 3 3 3 4 5 5 5 5 5 5 5 5 6 7 7 8 8 9 10 11 11 12 12 12 13 13 12 12 12 11 11 11 12 13 13 12 12 12 12 12 12 11 10 9 9 9 9 9 9 9 9 9 9 8 8 8 8 8 8 9 9 9 10 10 10
4 5 9 12 14 16 16 15 14 14 13 13 13 12 11 9 8 7 6 5 4 4 4 4 4 5 5 5 4 4 4 4 5 6 6 7 7 8 9 10 11 11 11 12 13 13 12 12 12 12 11 11 12 12 12 12 12 12 12 12 11 10 9 8 8 8 8 8 8 8 8 8 8 8 8 8 8 8 9 9 9 10 10 11 11
4 4 7 10 13 15 17 18 16 16 15 15 14 13 12 11 10 9 8 7 6 5 5 5 5 5 4 4 4 3 3 4 4 4 5 6 6 7 8 8 10 10 11 12 12 12 12 12 12 11 11 11 11 12 12 12 12 13 13 13 11 10 9 8 7 7 7 6 6 6 6 6 7 7 7 8 9 9 9 10 10 10 11 11 12
4 5 6 8 12 14 17 18 19 18 17 17 16 15 14 13 12 11 10 9 8 7 6 5 5 5 4 4 3 3 3 3 3 3 3 4 5 6 6 7 9 10 10 11 11 11 11 11 11 11 10 10 10 11 11 11 12 12 13 12 11 9 8 7 6 6 5 5 4 5 5 5 6 6 7 8 9 9 10 10 10 11 11 12 12
4 6 7 8 10 13 16 18 20 20 19 19 18 17 16 14 14 13 12 11 10 9 7 7 6 5 5 4 3 3 2 2 2 2 2 3 4 5 5 6 7 9 10 10 10 10 10 10 9 9 9 9 9 9 9 10 10 10 10 10 9 7 6 6 5 5 5 5 5 5 5 6 6 7 8 8 9 10 10 11 11 11 12 13 13
5 8 9 10 11 12 15 18 21 22 22 21 20 19 18 16 15 15 14 13 12 10 9 8 7 6 5 4 3 3 2 2 1 1 1 2 3 4 4 5 6 8 9 9 9 9 9 8 8 8 8 8 7 7 7 7 7 7 7 7 7 6 5 5 4 4 5 6 6 6 6 6 7 8 8 8 9 10 11 11 12 12 13 14 14
6 9 10 11 12 13 15 18 21 23 24 23 22 20 19 18 17 16 15 14 13 11 10 8 8 7 6 5 4 3 3 2 1 1 1 1 2 3 3 4 5 6 7 7 8 8 7 7 7 6 6 6 6 5 5 5 5 5 6 6 6 5 5 4 4 4 4 5 6 7 7 7 7 7 8 9 9 10 11 12 12 13 14 14 15
8 10 12 12 13 14 15 18 21 24 25 24 23 22 21 19 18 17 16 15 13 12 10 9 8 7 6 6 5 4 3 2 2 1 1 0 1 2 3 3 4 5 6 6 6 6 6 6 5 5 5 5 4 4 4 4 4 4 4 4 4 4 4 4 4 4 4 5 6 8 9 8 8 8 9 9 10 11 11 12 12 13 14 15 15
10 11 13 14 15 16 17 18 21 24 25 26 25 23 21 20 19 18 16 15 14 12 11 10 9 8 7 6 6 5 4 3 3 2 2 1 1 1 2 3 3 4 5 5 5 5 5 4 4 3 3 3 3 3 3 3 4 4 4 4 4 4 4 4 5 5 5 6 7 8 9 10 10 10 10 10 11 11 11 11 12 13 14 15 16
11 12 13 15 16 17 18 19 21 24 26 26 25 24 22 21 19 18 17 16 14 13 11 10 9 8 7 7 6 6 5 4 4 3 3 2 2 1 1 2 2 3 4 4 4 4 3 3 3 2 2 2 2 2 2 3 4 5 5 5 5 5 5 6 6 7 8 8 9 9 9 10 12 12 11 12 12 12 12 13 13 13 14 15 15
12 13 14 16 17 18 19 20 21 23 25 26 26 24 23 21 20 18 17 16 14 13 12 10 9 8 8 8 7 6 6 5 4 4 4 3 2 1 1 1 1 2 2 2 2 2 2 2 1 0 1 2 3 3 3 4 5 6 6 6 7 6 6 7 8 9 10 10 11 11 11 11 12 13 13 13 13 14 14 14 14 14 15 15 15
12 14 15 16 17 18 19 20 21 23 25 26 26 25 24 22 20 18 17 16 15 13 12 11 10 9 8 8 8 7 6 6 5 5 4 4 3 2 1 1 1 1 1 1 1 1 1 1 1 1 2 3 4 4 5 6 7 8 9 9 9 9 8 9 10 10 11 12 13 13 13 13 13 13 14 14 14 15 15 16 16 16 16 16 16
14 15 16 17 18 19 19 20 20 22 25 25 26 25 23 22 20 18 17 16 15 13 13 11 10 9 8 8 8 8 7 6 6 5 5 4 4 3 3 2 1 1 1 1 2 2 2 2 2 3 3 4 5 6 7 7 8 9 11 11 12 12 11 10 11 12 13 13 14 14 14 15 14 14 14 15 15 15 16 16 16 17 17 17 17
16 17 17 17 17 18 19 20 20 22 24 25 24 23 23 22 20 18 17 16 15 14 13 11 10 9 9 9 9 8 8 7 6 5 5 5 5 4 4 3 3 2 3 3 3 4 4 4 4 4 4 5 6 7 8 8 9 10 12 13 13 14 14 13 12 13 14 14 14 14 15 15 15 15 15 15 16 16 17 17 17 17 18 18 17
16 17 16 16 16 16 18 19 19 21 23 24 23 22 22 21 19 18 18 16 15 14 13 11 10 10 9 9 9 9 8 7 6 6 6 6 6 5 5 4 4 4 4 4 5 5 5 6 6 6 6 7 7 8 8 9 10 11 12 14 14 15 16 15 14 14 14 15 15 14 15 15 15 15 15 16 16 17 17 18 18 18 18 18 18
15 15 15 15 15 15 17 19 19 20 22 23 22 22 22 20 19 18 17 16 15 14 12 11 11 10 9 9 9 9 8 8 7 6 6 6 6 6 5 5 5 5 5 5 6 6 7 7 8 8 8 8 9 9 10 10 11 12 13 14 15 16 16 17 17 16 15 15 15 15 14 14 15 15 15 16 17 17 18 18 18 18 18 19 18
13 13 14 14 15 15 17 19 19 20 21 21 21 21 21 20 19 18 17 16 15 13 12 12 11 10 10 9 9 9 9 8 7 7 7 7 6 6 6 6 5 6 6 6 7 7 8 9 9 9 9 9 10 10 11 12 12 13 13 14 15 16 17 17 18 17 17 17 17 17 16 15 15 15 15 16 17 18 18 18 18 18 19 19 19
12 13 14 16 16 16 17 19 20 20 20 20 20 21 20 19 18 17 16 15 14 13 12 12 11 10 9 9 10 10 10 9 8 8 7 7 7 7 7 7 7 7 7 8 8 9 9 10 10 10 11 11 11 11 11 12 12 13 14 14 15 16 16 17 17 17 16 17 17 17 16 15 15 15 15 16 16 17 17 18 18 17 17 18 18
13 14 15 16 17 18 17 18 19 20 19 19 20 20 20 19 18 17 16 15 14 13 13 12 11 10 9 10 11 11 10 9 9 8 7 7 7 8 8 8 8 8 9 9 9 9 10 10 10 11 11 11 11 12 12 12 12 13 13 14 14 14 15 16 16 15 15 15 15 14 14 14 14 13 14 15 16 16 17 17 17 17 16 16 17
13 14 14 15 18 19 18 17 18 19 18 19 20 20 19 19 17 17 16 14 14 13 13 12 11 10 10 11 12 12 11 10 9 8 7 7 8 9 9 9 9 9 10 10 11 10 10 11 10 10 11 11 12 12 12 12 12 12 13 13 13 13 14 14 14 14 14 14 13 12 11 12 13 12 13 14 15 16 17 17 17 17 17 16 17
13 14 14 15 18 19 17 16 17 18 19 20 20 20 19 18 18 17 16 14 14 14 13 12 11 11 12 13 13 12 11 9 9 8 8 8 8 9 10 10 9 10 11 11 12 11 11 11 10 10 10 11 12 12 12 12 12 12 13 13 13 13 13 13 13 13 13 13 12 11 10 12 13 12 12 14 14 15 16 17 16 17 17 17 17
14 14 14 15 18 18 16 15 16 19 20 20 20 20 19 19 18 17 16 15 14 14 13 13 12 12 13 14 13 12 10 9 9 9 8 9 9 10 10 10 10 11 12 12 12 11 11 11 10 10 11 12 12 12 12 12 12 13 13 12 13 12 12 12 12 13 13 12 12 11 11 12 13 12 12 13 14 15 16 16 16 16 16 16 16
14 14 14 16 17 16 15 15 18 20 20 20 19 19 19 18 17 16 15 15 15 15 14 14 14 14 14 14 12 11 10 9 10 10 9 10 10 10 11 11 11 11 12 12 11 11 11 11 11 12 12 13 13 13 13 13 14 13 12 12 12 11 10 10 11 11 11 11 11 10 11 12 12 12 12 12 14 14 15 15 16 16 15 14 15
14 13 14 16 15 14 15 17 19 20 20 19 19 18 18 16 15 15 14 15 15 15 15 15 14 14 14 13 12 11 11 11 11 10 10 11 10 10 11 11 10 11 12 12 11 11 11 11 12 12 13 14 14 14 13 14 14 13 13 12 11 10 9 9 9 9 9 9 10 9 10 10 11 11 11 12 13 14 14 15 16 18 17 16 16
13 12 13 13 11 12 15 18 20 21 20 19 18 17 16 15 14 14 14 14 16 16 16 15 15 14 14 13 13 12 12 12 11 11 11 11 10 10 10 10 10 10 11 10 10 11 11 12 12 12 13 14 15 14 14 13 13 13 12 12 11 10 10 10 10 9 8 8 9 9 9 9 10 10 11 12 12 13 13 14 16 18 17 16 17
11 11 11 10 10 12 16 19 21 20 18 17 16 15 15 14 14 13 13 14 15 16 16 15 14 14 14 13 13 13 12 12 12 11 11 11 10 11 11 10 10 10 10 9 10 11 12 12 13 13 13 14 14 13 13 12 13 12 12 12 12 11 11 12 11 10 9 9 9 9 9 9 9 10 11 11 12 12 13 13 14 15 15 15 16
11 12 12 11 12 15 19 20 18 16 15 14 14 14 14 13 13 12 13 14 14 15 15 14 14 15 14 13 13 14 13 13 12 11 11 10 10 11 11 10 10 10 10 9 10 11 12 12 13 13 12 12 12 12 12 12 12 12 12 12 12 12 12 12 12 11 10 10 10 10 10 10 10 10 10 11 12 12 13 13 13 14 13 13 14
12 13 14 15 15 18 20 18 16 15 14 14 14 14 14 13 13 13 13 13 14 15 15 14 14 15 14 14 14 14 13 12 11 11 11 10 10 10 9 9 10 10 9 9 10 11 12 12 12 11 11 11 11 11 12 12 12 12 12 12 12 12 12 12 12 11 11 10 11 11 11 11 10 10 10 11 12 12 13 13 13 14 13 12 13
14 13 14 16 16 19 19 17 16 15 13 14 15 15 14 14 14 13 13 14 14 15 15 14 15 15 15 14 14 14 13 12 11 11 10 9 9 8 8 8 9 9 9 9 10 12 12 12 11 10 10 10 11 11 12 12 12 12 11 12 12 12 12 11 11 10 10 10 11 12 12 11 11 10 10 11 12 12 13 14 14 14 13 13 13
16 14 12 14 15 18 20 19 17 14 13 15 16 16 15 15 15 14 15 15 15 15 15 15 15 15 15 15 14 14 13 11 10 10 10 9 9 8 8 8 8 9 9 10 11 12 12 11 10 10 10 10 11 11 11 11 11 10 10 11 11 11 11 10 10 10 10 11 11 12 12 12 12 12 12 12 12 13 13 14 15 14 14 14 13
16 15 11 12 14 18 22 21 16 14 14 16 15 15 16 16 16 15 15 15 15 15 16 15 15 15 16 15 14 13 12 11 10 11 11 10 9 9 8 7 7 8 9 10 12 12 11 10 9 10 11 11 11 11 10 9 8 8 9 9 10 10 11 11 11 11 11 11 12 12 13 13 13 14 14 14 14 14 14 14 14 15 15 15 14
16 15 13 12 15 19 22 20 16 14 14 15 14 14 16 15 15 15 15 15 16 16 16 15 14 15 16 14 13 12 12 11 11 12 12 11 11 10 8 6 7 8 9 10 11 11 10 9 9 10 10 10 10 10 9 8 8 8 9 9 9 10 10 11 12 12 11 11 12 12 12 13 14 15 16 16 16 16 15 15 15 15 16 16 16
15 15 14 15 18 19 20 19 16 16 17 17 16 15 15 16 16 16 16 17 17 16 15 14 14 15 15 13 12 12 11 11 11 12 12 12 11 10 8 7 8 9 9 9 10 10 10 10 10 9 9 9 8 8 8 8 8 8 9 10 9 9 10 10 10 10 10 11 11 12 12 13 14 16 17 17 17 17 17 17 16 16 17 17 17
16 15 16 18 19 19 20 21 20 20 21 20 18 16 16 17 18 18 18 18 17 15 14 14 14 14 14 13 13 12 12 11 11 11 11 11 11 11 9 8 9 10 9 9 9 10 11 11 9 9 9 9 8 7 7 7 8 8 9 9 9 8 8 8 8 9 10 11 12 12 13 14 15 16 16 17 17 18 18 18 18 18 18 18 19
17 17 19 20 19 19 20 22 22 22 22 20 19 19 17 18 19 18 18 17 15 14 13 13 13 14 14 15 15 14 13 12 11 11 11 12 12 11 11 10 10 10 10 10 10 11 12 11 9 8 9 10 8 7 6 6 7 7 8 9 9 7 7 8 9 10 10 11 11 12 13 14 15 16 15 16 17 18 19 20 20 20 20 20 20
19 19 20 21 21 20 20 22 22 22 22 20 20 20 18 18 19 19 17 16 15 14 13 14 14 15 15 16 17 16 14 13 12 12 13 13 12 12 12 10 11 11 11 11 11 12 11 9 7 7 8 9 9 7 6 7 6 6 7 8 9 9 7 8 10 11 10 11 11 12 13 14 15 16 16 16 17 18 19 20 21 22 22 22 22
20 21 23 26 24 22 23 23 21 21 21 20 21 20 19 20 21 20 18 16 15 14 15 15 15 16 17 17 18 16 14 14 14 13 13 13 12 12 10 10 10 10 10 11 11 11 10 9 7 7 7 7 8 7 6 7 7 7 6 7 8 9 9 10 12 12 12 12 13 14 14 15 16 17 18 18 18 19 20 21 21 22 22 23 24
23 25 27 28 24 23 27 24 20 20 20 21 22 21 22 23 24 21 19 17 16 16 16 16 17 17 17 18 18 17 15 15 14 12 11 11 11 10 9 9 9 9 9 10 11 11 10 9 7 7 7 7 8 8 7 7 7 7 8 8 8 8 9 10 10 11 13 13 14 15 16 17 18 19 20 21 21 21 21 22 22 22 23 23 24
22 24 24 21 18 22 26 22 18 19 19 22 23 22 23 25 24 22 18 17 16 16 16 17 18 17 17 18 18 17 16 16 15 12 10 10 9 8 8 8 8 9 10 10 11 11 11 9 8 7 8 8 8 9 9 9 8 8 9 9 10 10 9 10 9 8 11 13 15 17 18 19 19 20 21 22 23 23 23 23 23 23 24 25 24
20 21 19 15 16 20 20 17 16 18 19 23 24 23 24 25 24 20 16 15 14 14 16 17 18 17 17 18 17 17 17 16 14 12 10 9 9 8 8 9 10 11 11 11 12 12 12 10 9 8 7 7 8 9 10 11 11 10 11 11 12 12 12 12 12 10 10 11 14 17 19 21 22 22 23 24 24 25 25 25 24 25 26 26 25
18 19 18 17 17 17 16 16 18 19 21 24 25 24 25 25 23 20 17 15 14 15 16 17 17 17 17 18 18 17 16 15 13 12 11 10 10 11 11 11 11 12 12 13 13 13 12 11 9 8 7 7 8 9 10 11 12 12 13 13 14 15 16 17 18 18 17 15 14 16 19 21 23 25 26 27 27 27 27 27 27 28 27 27 27
19 19 17 18 18 16 16 18 19 21 23 25 25 25 24 24 23 21 20 18 17 17 17 17 17 17 18 19 18 16 15 14 12 11 11 11 11 12 12 12 12 12 13 14 14 14 12 10 9 8 7 8 9 9 10 11 12 12 13 14 16 17 19 20 22 24 25 25 22 21 22 22 24 26 27 29 30 30 29 29 30 30 29 29 29
19 18 17 19 18 17 17 18 18 19 22 24 25 24 24 24 24 23 21 19 20 20 19 19 18 18 18 18 17 15 14 13 11 11 11 12 12 12 12 12 13 13 13 14 14 13 11 10 8 8 8 9 9 10 11 11 12 12 13 14 16 17 19 22 24 26 29 31 31 30 29 27 27 28 29 29 30 30 31 31 31 32 31 31 31
20 18 19 20 19 19 18 18 17 18 22 25 24 24 25 25 25 25 23 21 21 21 20 19 18 17 17 17 16 15 14 12 11 11 12 11 11 12 12 12 12 12 13 13 13 12 10 9 9 9 9 10 10 11 12 12 13 13 14 15 16 18 20 22 25 27 30 32 34 34 34 32 30 30 31 32 32 31 31 31 32 32 32 32 32
22 21 21 21 20 20 18 17 16 19 23 24 24 26 26 26 26 25 23 22 21 20 19 18 17 16 15 15 15 15 13 13 12 12 11 11 12 12 12 12 12 12 13 12 11 11 10 9 9 10 10 11 12 13 13 14 14 14 15 16 18 20 22 24 26 29 31 33 35 35 34 34 33 32 32 33 33 33 33 32 31 32 33 32 33
Wind_Direction
217 211 210 207 183 180 187 184 174 167 167 167 167 151 129 100 71 53 45 44 44 44 45 47 48 49 49 49 50 49 48 51 54 55 55 55 57 60 62 61 61 61 61 61 63 66 69 72 73 74 77 79 81 84 81 77 74 73 73 75 79 81 84 88 90 90 90 91 91 91 88 87 85 83 79 75 72 68 65 62 60 59 53 48 46
224 217 213 212 197 185 190 189 180 174 175 180 185 179 160 135 98 57 39 37 39 39 40 42 44 45 45 46 49 49 48 49 52 54 55 56 56 59 61 62 62 62 63 63 63 65 69 72 75 77 77 78 79 78 76 74 71 70 72 75 79 83 86 88 89 90 91 93 94 94 91 88 85 82 78 74 71 67 62 59 56 53 49 44 42
228 216 216 214 207 194 193 193 184 180 181 187 196 195 190 171 141 98 25 25 30 32 33 35 39 41 41 42 45 48 49 48 48 51 54 56 57 58 60 62 62 63 64 65 64 63 64 67 71 74 76 75 76 77 76 74 71 71 72 72 75 80 85 87 89 93 95 94 94 93 92 89 83 77 73 69 65 62 58 55 51 49 44 40 36
236 211 215 218 214 202 197 197 189 185 186 193 202 203 204 197 176 178 271 358 16 21 24 26 30 35 36 37 41 46 49 49 47 47 50 54 57 58 60 62 62 63 65 66 66 65 65 65 68 70 73 76 78 80 80 79 77 75 74 73 74 77 80 84 88 92 94 93 91 89 87 85 81 74 69 65 60 57 54 50 45 41 37 32 27
241 211 212 219 219 209 202 201 197 192 192 197 204 208 211 207 199 202 227 284 344 4 12 14 17 24 29 32 37 44 47 49 48 46 46 49 54 57 59 62 63 63 65 67 68 68 68 68 70 73 76 80 82 83 82 81 81 80 79 77 75 75 77 82 87 89 90 90 88 87 84 82 80 75 69 63 56 50 46 42 36 30 26 21 16
220 215 212 216 219 215 210 207 205 199 197 201 205 212 215 213 211 215 226 250 293 330 352 0 3 11 19 24 31 40 44 46 48 45 43 45 50 56 59 61 64 65 66 68 69 69 69 70 71 74 78 81 83 83 81 81 82 84 82 77 74 73 77 81 85 88 89 88 87 85 83 80 77 73 68 60 52 42 33 28 23 16 12 7 3
189 215 214 215 216 216 217 214 211 206 202 204 208 213 217 220 221 223 228 243 269 298 323 338 348 357 5 13 24 34 40 43 46 44 42 43 48 55 59 61 65 68 69 69 69 69 68 69 69 71 75 77 80 81 82 82 82 81 78 74 71 71 73 77 81 85 88 87 86 84 81 76 69 63 58 49 40 31 21 14 9 4 1 358 354
188 215 216 216 215 216 219 220 217 213 208 207 211 215 218 223 226 229 233 244 260 279 300 315 329 341 351 1 14 24 34 40 43 44 41 41 44 52 58 61 66 70 72 72 71 71 69 70 70 71 73 75 77 80 82 82 81 79 77 74 72 71 71 74 78 81 83 84 82 79 72 65 55 44 35 27 20 15 9 4 2 0 359 356 353
198 222 222 219 218 218 219 222 222 218 214 211 213 217 221 224 229 233 236 246 256 268 285 298 310 321 334 345 1 13 24 37 42 44 43 41 43 48 55 61 67 70 72 74 74 73 72 72 73 73 74 76 78 80 81 81 82 83 80 77 74 70 67 67 70 73 72 73 71 66 59 51 41 31 20 13 7 4 3 1 0 360 357 354 352
214 231 237 230 225 224 222 223 224 222 219 215 215 219 224 226 231 235 239 247 254 261 272 285 294 303 316 329 345 358 8 25 36 42 45 45 45 48 54 61 68 70 72 74 75 76 76 75 76 77 77 78 79 79 81 83 85 86 84 81 78 72 66 60 54 52 45 43 40 37 36 33 28 21 14 12 5 0 360 358 358 356 353 350 348
239 245 251 245 237 232 228 226 225 225 223 219 218 220 225 228 232 235 240 246 252 258 264 274 282 291 301 312 329 340 348 5 22 35 44 50 51 52 56 62 68 70 73 74 75 77 77 78 78 79 81 80 80 80 82 84 87 88 88 87 83 73 65 58 43 24 10 6 359 1 13 17 19 16 12 11 5 359 357 354 353 352 351 349 345
256 256 256 255 252 243 236 231 227 226 225 223 220 221 226 229 233 235 240 245 250 254 259 266 273 281 289 297 311 317 322 331 350 16 31 51 58 58 63 67 72 73 74 75 75 76 76 77 78 79 81 82 80 78 79 82 85 85 85 86 80 66 53 48 41 20 0 351 341 341 358 10 13 9 5 4 2 358 354 353 353 353 353 351 347
259 259 257 260 261 255 246 238 232 229 227 226 223 223 226 230 234 236 239 243 248 251 255 261 267 275 280 288 295 298 296 294 302 316 342 45 63 64 70 73 80 79 77 76 76 76 76 77 76 76 77 79 76 71 71 72 74 73 71 72 71 64 45 34 29 19 6 353 341 339 345 354 359 358 356 355 355 354 354 353 353 353 353 352 349
266 263 257 262 266 264 255 245 238 233 230 228 227 225 227 230 234 237 240 242 246 249 253 258 264 271 274 279 283 284 280 270 266 257 266 286 79 79 79 78 85 84 81 80 79 78 76 78 76 73 70 71 67 57 48 42 46 49 50 47 49 49 35 21 9 4 1 353 346 341 337 337 343 347 344 345 347 349 350 349 348 347 346 346 345
264 257 256 266 271 268 261 252 243 237 233 231 229 228 228 231 234 237 239 242 244 247 251 256 262 267 270 272 274 274 270 259 250 243 243 234 192 118 92 84 88 87 86 83 84 85 80 80 75 71 59 55 53 41 23 6 4 9 15 14 13 17 10 358 347 343 340 339 340 338 334 332 333 333 331 333 336 339 340 339 337 335 335 337 339
254 250 257 268 271 269 263 255 247 240 236 234 232 230 230 231 234 236 239 242 244 246 249 253 258 263 265 267 268 268 265 255 243 238 234 231 220 167 117 96 96 93 92 89 91 94 92 89 80 67 36 17 13 4 348 335 329 332 339 342 343 349 346 336 330 328 327 326 328 328 327 325 323 322 322 324 326 327 328 328 327 325 326 328 331
250 253 262 267 268 266 264 258 249 242 238 235 233 231 231 231 233 235 238 243 244 245 247 249 254 259 262 263 264 263 261 252 243 237 233 230 225 202 166 137 115 107 102 99 99 105 110 109 102 56 335 322 324 324 313 310 310 311 317 321 322 328 328 323 320 318 319 317 317 317 317 317 316 316 316 317 317 316 317 318 318 318 320 321 324
261 265 266 267 266 265 265 262 252 244 240 236 234 232 231 232 233 235 238 242 243 243 245 247 252 258 259 260 260 257 252 245 240 237 233 232 229 229 222 208 168 143 143 137 143 151 159 174 190 232 272 290 297 304 302 299 300 301 306 310 311 315 319 316 314 313 312 310 310 310 311 311 312 311 310 309 309 309 310 312 313 314 315 316 318
275 276 272 266 265 267 269 267 256 244 240 238 236 234 233 233 234 235 237 240 241 241 243 246 251 255 255 255 254 249 244 238 235 236 235 234 231 231 233 235 239 236 241 239 241 241 240 240 236 242 253 267 276 285 292 293 295 298 301 306 308 310 313 313 312 311 309 307 307 306 307 308 308 307 306 306 305 305 307 309 310 310 311 312 314
283 281 277 271 269 272 273 269 256 243 239 238 237 237 236 235 234 234 236 239 239 241 243 246 249 252 252 250 249 244 241 237 235 239 240 238 233 232 234 235 242 248 253 259 264 265 266 268 265 262 261 264 269 275 283 287 290 294 298 301 305 307 309 310 309 308 308 307 305 303 304 305 307 306 306 305 303 303 305 306 306 307 308 310 311
282 281 281 278 277 278 277 269 254 242 238 237 237 237 238 236 234 234 236 239 240 242 243 244 248 249 248 246 245 244 241 239 239 240 243 243 240 240 241 242 248 254 259 262 267 270 273 275 276 275 276 276 276 279 281 284 287 289 293 296 300 303 305 306 306 306 305 304 303 302 303 305 307 306 305 304 302 302 301 301 301 303 305 307 308
283 284 284 282 282 282 278 267 252 240 236 235 235 236 237 235 234 235 237 240 241 242 241 242 247 247 245 245 246 246 244 243 242 242 244 247 249 251 251 249 250 255 259 263 266 269 272 273 275 278 282 285 283 284 284 285 287 288 290 293 296 298 301 303 305 307 306 305 305 304 305 307 307 306 305 304 302 300 298 297 298 299 301 302 303
293 291 286 283 284 282 277 268 253 239 234 233 232 234 235 234 233 234 237 240 241 240 239 242 246 246 244 247 247 245 245 244 243 243 246 250 254 259 259 256 254 256 257 261 265 268 270 272 275 279 280 282 282 283 285 286 287 289 291 293 294 296 298 301 305 309 312 311 310 310 309 308 308 307 305 303 302 302 301 299 298 298 299 299 300
302 298 289 283 281 280 274 268 255 242 235 230 230 233 233 232 231 233 236 237 238 238 240 244 247 245 245 247 246 244 243 242 242 242 247 252 256 258 258 258 257 258 260 261 261 262 265 269 272 275 277 278 280 280 282 284 285 288 292 292 292 294 297 301 305 308 312 313 312 312 310 307 305 303 302 303 306 309 308 304 300 299 298 299 300
305 303 296 286 283 282 275 265 255 245 234 226 227 230 231 231 231 233 235 235 235 238 241 245 246 243 243 246 245 242 241 240 242 242 246 253 256 257 257 257 258 262 265 265 264 263 263 266 269 271 276 279 280 281 280 281 283 286 288 289 289 291 295 299 303 307 311 312 310 308 306 302 299 300 303 306 311 313 314 310 303 299 298 299 301
303 299 293 287 283 283 278 263 251 242 228 220 222 226 228 229 231 233 234 234 236 239 241 242 241 239 240 244 242 240 241 240 242 244 246 254 259 262 263 261 261 263 267 270 269 269 269 269 270 274 279 282 284 284 284 284 285 286 287 288 289 290 292 296 302 308 310 309 306 304 300 296 295 300 304 307 312 312 314 312 306 301 300 300 301
289 284 284 285 282 279 275 260 245 232 219 216 218 222 226 229 231 232 231 233 237 238 238 236 235 235 237 242 241 240 242 240 243 247 251 259 264 266 266 265 264 267 271 275 274 273 275 275 276 280 283 286 288 288 288 288 288 287 288 290 291 293 296 300 303 305 304 302 302 302 298 292 294 299 302 307 311 311 313 312 309 305 303 302 302
275 276 281 284 281 278 270 253 236 222 214 214 217 221 226 229 232 233 233 235 237 235 233 232 231 232 237 242 242 241 243 243 245 249 254 260 262 263 265 268 270 274 276 278 277 277 279 283 285 286 289 290 290 290 291 293 291 289 287 289 292 296 299 301 300 299 298 300 302 301 297 294 296 300 303 308 310 311 312 312 311 307 304 303 302
268 272 279 282 279 274 260 239 223 215 212 213 217 222 227 231 235 237 238 239 237 234 231 230 230 231 237 242 241 239 240 243 246 249 254 256 258 263 269 276 279 280 280 279 278 279 282 287 291 292 292 291 289 289 291 292 289 286 284 284 289 294 298 298 297 296 298 303 307 305 300 297 300 303 307 309 310 312 312 314 312 306 306 307 305
262 269 279 284 276 259 242 223 211 211 211 212 216 223 228 232 236 239 240 239 238 235 232 230 230 232 237 241 239 235 236 241 246 249 252 255 260 268 275 282 285 282 280 279 279 281 284 288 291 292 289 286 284 284 283 283 282 282 282 283 289 295 298 300 301 301 300 303 306 305 302 301 304 308 312 313 313 315 315 316 312 310 317 321 320
258 270 278 280 264 237 224 211 204 207 210 211 215 221 227 230 233 236 237 238 238 236 234 231 231 233 237 239 237 235 236 239 244 248 251 256 264 270 274 277 276 275 275 277 280 282 283 284 284 282 281 280 278 277 276 277 277 279 285 291 299 304 307 308 308 307 303 301 302 304 305 306 308 312 315 316 317 319 318 319 317 320 330 334 335
267 274 268 261 242 218 208 203 202 204 207 208 213 220 224 225 228 230 231 233 235 235 234 233 233 235 239 238 235 237 238 240 243 245 250 257 266 270 271 270 263 259 263 267 270 274 279 280 278 276 276 277 276 276 279 281 283 287 293 300 305 309 311 312 312 311 308 306 306 308 310 310 311 314 317 318 320 323 323 324 323 327 333 336 338
283 283 263 240 223 208 202 202 204 206 211 214 218 221 220 219 221 220 224 226 228 233 234 233 234 237 240 237 233 236 238 240 243 245 251 256 263 268 269 267 257 252 256 261 267 276 284 285 284 282 282 283 285 288 290 290 290 294 299 303 306 310 310 310 310 311 310 311 312 313 313 313 314 316 318 320 323 326 325 325 325 327 331 333 333
282 286 273 248 222 208 204 204 210 212 217 227 228 219 212 211 213 213 216 217 220 228 231 231 233 237 241 238 233 235 238 240 243 247 252 255 261 266 269 268 264 262 264 269 279 289 295 294 293 292 293 293 295 294 291 289 290 294 300 305 307 308 307 306 307 307 309 312 314 315 314 313 316 316 316 319 320 323 324 325 326 329 331 330 330
270 277 278 261 231 213 208 208 213 213 219 232 227 212 206 206 208 209 210 211 214 221 225 226 229 234 238 237 235 237 240 241 244 252 257 262 268 270 272 273 272 272 273 278 288 295 296 296 296 298 299 297 295 292 290 291 295 299 303 304 306 305 303 303 304 306 308 310 311 311 311 312 314 312 311 313 315 318 321 323 326 328 328 327 330
266 271 271 260 241 220 212 213 217 218 223 230 221 209 205 205 205 205 207 208 209 215 219 222 225 229 233 234 236 239 241 240 244 254 261 269 270 266 265 269 274 278 282 286 291 293 294 296 299 300 299 297 297 298 297 300 303 304 304 304 304 303 303 304 306 307 308 308 309 309 310 311 311 309 310 311 312 315 317 319 322 323 324 324 327
259 267 260 246 237 223 216 215 214 215 222 225 217 211 208 207 207 205 207 207 206 211 214 218 223 229 233 233 235 240 240 241 245 252 258 264 263 260 262 266 276 286 291 294 295 294 295 298 301 301 300 303 306 308 309 311 312 310 308 305 304 304 306 308 309 309 310 310 311 311 310 310 309 309 311 311 310 312 313 315 317 317 318 318 320
253 259 249 228 219 221 219 211 203 203 213 219 213 215 215 210 210 208 208 209 206 209 211 215 222 229 234 233 235 239 238 240 246 251 255 258 262 266 268 269 280 290 293 296 298 296 297 299 302 302 302 306 311 315 317 318 319 315 309 306 307 311 310 308 308 310 314 315 316 314 311 309 309 310 311 312 311 310 311 312 312 312 311 312 312
248 251 241 224 214 218 219 209 202 199 201 208 208 217 223 216 214 209 206 207 206 207 209 213 220 227 232 230 231 232 230 236 246 250 252 254 263 270 269 270 276 282 287 294 298 300 300 299 300 301 301 303 309 319 324 322 321 315 310 310 318 322 316 312 312 315 320 320 320 317 315 314 313 312 313 313 312 310 310 309 309 308 306 306 306
247 247 235 228 220 217 217 211 211 204 197 199 202 214 226 220 214 207 201 202 202 202 205 210 216 223 226 223 221 218 220 232 241 246 249 254 264 266 262 266 274 281 290 297 301 301 299 298 301 307 308 308 314 327 329 324 321 317 313 316 328 333 323 321 323 325 327 326 325 325 322 319 315 313 313 311 310 308 307 308 307 306 304 303 303
249 243 229 226 222 217 212 203 203 199 194 196 200 211 224 221 213 205 199 197 195 197 201 206 212 219 221 218 213 212 219 230 237 244 250 254 257 254 256 266 277 285 291 296 299 297 297 299 303 311 313 314 321 331 328 323 324 323 320 320 329 338 332 331 332 332 334 331 329 329 326 322 318 316 316 313 309 307 306 306 306 305 303 302 300
249 240 228 221 216 213 202 188 188 189 189 196 200 206 216 220 214 203 196 193 191 194 200 206 212 218 220 216 212 215 223 230 235 242 247 248 246 246 257 272 281 285 288 293 296 294 292 293 298 308 312 313 317 323 323 322 322 321 322 322 327 335 337 337 333 331 334 333 330 329 327 323 319 318 318 315 311 309 307 305 304 304 303 302 301
237 230 227 220 211 204 191 180 182 184 187 196 198 199 208 220 219 206 196 191 191 196 202 208 214 218 218 213 212 217 223 229 233 238 241 242 241 246 261 276 282 285 287 289 290 288 285 285 292 301 303 303 306 315 320 319 320 322 325 325 325 331 334 335 332 327 328 330 327 326 323 319 317 317 316 313 310 308 306 306 305 305 304 304 302
231 229 230 224 213 199 186 176 177 183 188 194 194 195 206 220 221 210 200 193 193 199 205 212 217 219 216 210 212 217 221 227 231 231 234 239 244 251 264 274 278 280 283 285 286 285 282 283 289 292 294 299 305 316 320 319 323 326 327 326 324 326 325 325 325 319 321 326 325 323 321 319 319 318 316 313 310 307 306 306 305 304 302 300 299
240 243 243 237 227 208 192 178 175 184 191 193 191 196 210 222 223 214 205 198 197 203 209 215 221 222 218 211 214 218 222 226 227 223 227 239 245 248 256 265 269 272 277 283 285 282 279 280 282 283 290 300 309 316 319 321 326 327 326 328 326 326 324 322 322 319 322 326 326 324 322 322 322 318 314 311 309 307 306 305 303 301 299 297 296
243 244 245 241 232 217 197 178 178 187 190 191 192 200 214 224 224 217 209 204 206 210 215 219 221 223 221 216 216 219 223 227 225 220 223 235 239 236 242 252 261 269 277 284 284 279 278 278 280 282 289 300 308 314 316 318 324 327 329 330 328 328 330 329 329 332 332 329 326 324 322 323 322 318 314 310 308 306 305 303 300 297 295 296 296
236 235 235 225 216 206 190 182 190 198 195 193 195 202 216 225 223 218 209 205 212 218 220 221 220 220 219 217 217 219 225 229 227 223 223 231 235 235 241 251 262 269 275 279 280 279 279 279 280 284 291 298 305 310 312 315 321 326 327 328 328 328 330 331 331 332 333 333 329 322 321 321 319 318 315 312 309 306 304 301 299 296 295 296 296
229 229 227 213 201 191 186 189 200 207 201 196 198 202 215 225 223 218 211 205 212 217 217 218 219 219 218 218 218 220 226 229 227 225 228 235 238 241 248 257 264 266 270 277 280 282 282 282 284 288 292 298 304 309 313 317 320 323 324 325 326 326 327 328 329 329 328 329 330 325 320 318 315 314 313 312 310 307 303 299 296 296 296 295 295
223 221 215 203 192 185 186 193 204 208 197 193 196 200 213 226 225 219 214 208 212 217 215 215 216 218 222 223 223 222 224 224 222 223 232 239 240 246 256 262 263 266 274 280 283 283 285 286 287 289 292 298 304 309 315 318 320 321 321 322 323 324 324 324 325 326 324 325 327 326 323 319 315 312 310 309 306 304 300 297 295 294 294 294 293
218 213 206 202 195 189 190 197 205 202 191 189 196 204 217 227 226 221 216 213 215 218 218 218 218 218 222 225 225 223 222 222 222 225 230 235 242 254 260 262 265 273 281 284 284 285 287 289 289 291 295 300 306 311 316 318 318 319 319 319 320 320 321 321 322 322 321 320 321 321 320 318 316 313 311 308 305 302 298 295 293 292 291 291 291
216 213 207 208 202 195 198 201 199 193 190 193 202 213 224 228 226 223 221 219 219 221 222 221 221 221 222 224 225 224 222 222 224 225 228 236 248 257 258 262 270 280 286 288 289 288 288 290 291 294 298 302 309 313 315 314 314 314 315 315 316 317 319 319 319 319 317 316 315 316 315 315 314 313 311 308 306 303 300 296 293 290 289 288 288